time_stamp(utc),avg(mph),gust(mph),direction(deg),12m_air_temp(f),sonic_u(cm/s),sonic_v(cm/s),sonic_w(cm/s),pressure,2m_air_temp(f),pyranometer(W/m^2)
"2018-12-03 00:02:07+00",10.2,11.2,,53.8,-282,-355,0,1002.69,53,0
"2018-12-03 00:07:07+00",12.2,14.2,,54.6,-333,-429,7,1002.71,53.7,0
"2018-12-03 00:12:07+00",12.8,15.8,,54.7,-392,-407,9,1002.73,54,0
"2018-12-03 00:17:07+00",13.1,16.1,,54.8,-367,-462,11,1002.67,54.1,0
"2018-12-03 00:22:07+00",12.3,15.3,,54.6,-369,-402,14,1002.66,53.9,0
"2018-12-03 00:27:07+00",12.9,14.9,,54.6,-274,-475,2,1002.29,53.9,0
"2018-12-03 00:32:07+00",12.7,14.7,,54.9,-307,-460,9,1002.37,54.2,0
"2018-12-03 00:37:07+00",12.9,14.9,,55.1,-343,-460,8,1002.49,54.2,0
"2018-12-03 00:42:07+00",14.7,16.7,,55.7,-395,-515,9,1002.5,54.8,0
"2018-12-03 00:47:07+00",15.1,17.1,,55.6,-421,-520,1,1002.55,55,0
"2018-12-03 00:52:07+00",11.9,13.9,,55.3,-285,-432,13,1002.41,54.8,0
"2018-12-03 00:57:07+00",10.4,13.4,,54.9,-295,-351,9,1002.43,54.5,0
"2018-12-03 01:02:07+00",10.7,13.7,,54.9,-304,-363,19,1002.31,54.3,0
"2018-12-03 01:07:07+00",10.0,11.0,,54.9,-304,-322,22,1002.43,54.4,0
"2018-12-03 01:12:07+00",11.3,14.3,,54.4,-407,-272,11,1002.58,53.8,0
"2018-12-03 01:17:07+00",12.6,14.6,,54.2,-429,-324,15,1002.68,53.6,0
"2018-12-03 01:22:07+00",11.0,13.0,,53.6,-410,-266,19,1002.74,53.2,0
"2018-12-03 01:27:07+00",11.4,13.4,,52.9,-372,-325,8,1002.78,52.6,0
"2018-12-03 01:32:07+00",15.2,17.2,,53.4,-503,-412,15,1002.78,52.6,0
"2018-12-03 01:37:07+00",15.5,18.5,,53.6,-486,-485,23,1002.88,53,0
"2018-12-03 01:42:07+00",15.4,17.4,,53.6,-472,-475,-1,1002.77,53.1,0
"2018-12-03 01:47:07+00",16.9,19.9,,53.6,-562,-455,9,1002.85,52.9,0
"2018-12-03 01:52:07+00",15.3,18.3,,53.4,-478,-458,17,1002.84,52.9,0
"2018-12-03 01:57:07+00",13.2,16.2,,53.3,-402,-415,14,1002.83,52.8,0
"2018-12-03 02:02:07+00",13.2,15.2,,53.6,-388,-443,19,1002.76,53,0
"2018-12-03 02:07:07+00",12.4,13.4,,53.4,-337,-439,4,1002.71,52.9,0
"2018-12-03 02:12:07+00",12.3,15.3,,53.3,-318,-440,6,1002.65,52.9,0
"2018-12-03 02:17:07+00",14.4,16.4,,53.5,-378,-501,-2,1002.59,52.9,0
"2018-12-03 02:22:07+00",14.1,16.1,,53.4,-382,-493,11,1002.65,52.9,0
"2018-12-03 02:27:07+00",11.5,13.5,,53.4,-313,-397,16,1002.55,52.8,0
"2018-12-03 02:32:07+00",9.6,10.6,,53.6,-305,-297,11,1002.48,52.9,0
"2018-12-03 02:37:07+00",9.8,10.8,,53.7,-335,-256,0,1002.53,52.9,0
"2018-12-03 02:42:07+00",11.1,15.1,,53.4,-321,-383,5,1002.66,52.7,0
"2018-12-03 02:47:07+00",14.3,16.3,,53.6,-386,-501,5,1002.59,53,0
"2018-12-03 02:52:07+00",12.2,14.2,,53.5,-358,-401,14,1002.46,53,0
"2018-12-03 02:57:07+00",10.7,12.7,,53.2,-322,-350,2,1002.45,52.7,0
"2018-12-03 03:02:07+00",11.8,13.8,,53.3,-383,-339,6,1002.56,52.6,0
"2018-12-03 03:07:07+00",11.7,12.7,,53.2,-383,-331,7,1002.35,52.5,0
"2018-12-03 03:12:07+00",11.6,12.6,,53.4,-382,-320,-1,1002.32,52.6,0
"2018-12-03 03:17:07+00",10.6,12.6,,53,-328,-333,-3,1002.29,52.5,0
"2018-12-03 03:22:07+00",10.5,11.5,,52.9,-323,-339,-1,1002.27,52.2,0
"2018-12-03 03:27:07+00",9.8,10.8,,52.7,-258,-347,1,1002.35,52.1,0
"2018-12-03 03:32:07+00",8.4,9.4,,52.5,-158,-320,-2,1002.28,52,0
"2018-12-03 03:37:07+00",9.4,10.4,,52.7,-164,-358,-7,1002.35,52,0
"2018-12-03 03:42:07+00",7.2,9.2,,53.1,0,-296,-23,1002.22,52.5,0
"2018-12-03 03:47:07+00",9.7,13.7,,52.1,-40,-389,5,1002.3,51.9,0
"2018-12-03 03:52:07+00",12.5,17.5,,52.1,-193,-502,-5,1002.34,51.8,0
"2018-12-03 03:57:07+00",13.8,15.8,,52.6,-251,-518,0,1002.17,52.2,0
"2018-12-03 04:02:07+00",10.5,13.5,,52.8,-160,-425,-3,1002.26,52.4,0
"2018-12-03 04:07:07+00",11.7,14.7,,52.9,-156,-462,7,1002.3,52.6,0
"2018-12-03 04:12:07+00",9.5,12.5,,52.8,-120,-379,2,1002.14,52.5,0
"2018-12-03 04:17:07+00",11.0,14.0,,53,-218,-416,7,1002.3,52.6,0
"2018-12-03 04:22:07+00",11.3,12.3,,53.1,-274,-414,11,1002.31,52.6,0
"2018-12-03 04:27:07+00",8.9,9.9,,52.9,-269,-287,6,1002.19,52.5,0
"2018-12-03 04:32:07+00",9.0,10.0,,53,-249,-314,-1,1002.21,52.5,0
"2018-12-03 04:37:07+00",7.8,9.8,,53.2,-197,-284,8,1002.12,52.6,0
"2018-12-03 04:42:07+00",8.1,9.1,,53.1,-216,-284,7,1002.22,52.6,0
"2018-12-03 04:47:07+00",8.6,9.6,,53.1,-186,-319,-3,1002.12,52.4,0
"2018-12-03 04:52:07+00",6.1,7.1,,53,-59,-248,7,1002.05,52.5,0
"2018-12-03 04:57:07+00",7.1,9.1,,52.9,-53,-291,-2,1001.92,52.6,0
"2018-12-03 05:02:07+00",9.1,11.1,,53.1,-94,-367,0,1001.92,52.7,0
"2018-12-03 05:07:07+00",9.0,11.0,,53.3,-167,-336,-6,1001.89,52.8,0
"2018-12-03 05:12:07+00",9.0,11.0,,53.8,-223,-330,5,1001.75,53.1,0
"2018-12-03 05:17:07+00",9.5,10.5,,53.8,-246,-334,5,1001.66,53.2,0
"2018-12-03 05:22:07+00",8.3,9.3,,53.6,-234,-287,7,1001.66,53.1,0
"2018-12-03 05:27:07+00",8.3,10.3,,53.5,-234,-289,6,1001.71,53,0
"2018-12-03 05:32:07+00",8.9,9.9,,53.5,-256,-299,2,1001.61,52.9,0
"2018-12-03 05:37:07+00",9.3,10.3,,53.3,-227,-340,2,1001.59,52.7,0
"2018-12-03 05:42:07+00",9.4,11.4,,53.3,-214,-339,2,1001.68,52.6,0
"2018-12-03 05:47:07+00",8.6,9.6,,53.2,-210,-311,9,1001.68,52.6,0
"2018-12-03 05:52:07+00",7.8,9.8,,52.9,-232,-255,7,1001.77,52.4,0
"2018-12-03 05:57:07+00",8.4,9.4,,52.8,-234,-291,9,1001.86,52.3,0
"2018-12-03 06:02:07+00",8.3,9.3,,52.6,-232,-290,8,1001.8,52.2,0
"2018-12-03 06:07:07+00",7.7,8.7,,52.3,-218,-268,5,1001.85,51.9,0
"2018-12-03 06:12:07+00",9.8,10.8,,52.3,-259,-352,-1,1001.85,51.8,0
"2018-12-03 06:17:07+00",8.6,10.6,,52.2,-223,-307,4,1001.74,51.7,0
"2018-12-03 06:22:07+00",9.1,10.1,,52.2,-257,-323,8,1001.74,51.7,0
"2018-12-03 06:27:07+00",10.0,13.0,,52.1,-296,-340,10,1001.74,51.7,0
"2018-12-03 06:32:07+00",11.0,13.0,,52.1,-354,-305,2,1001.77,51.6,0
"2018-12-03 06:37:07+00",13.1,15.1,,52.1,-418,-387,2,1001.78,51.7,0
"2018-12-03 06:42:07+00",12.2,14.2,,51.9,-381,-368,7,1001.88,51.5,0
"2018-12-03 06:47:07+00",10.7,12.7,,51.6,-341,-308,-1,1001.8,51.2,0
"2018-12-03 06:52:07+00",9.8,10.8,,51.5,-315,-278,6,1001.88,51,0
"2018-12-03 06:57:07+00",11.2,13.2,,51.4,-361,-322,-2,1001.83,51,0
"2018-12-03 07:02:07+00",11.6,12.6,,51.3,-355,-373,6,1001.84,50.9,0
"2018-12-03 07:07:07+00",11.3,12.3,,51.3,-357,-342,5,1001.89,50.9,0
"2018-12-03 07:12:07+00",11.3,13.3,,51.1,-371,-323,3,1001.96,50.7,0
"2018-12-03 07:17:07+00",12.2,14.2,,50.9,-412,-322,3,1001.93,50.5,0
"2018-12-03 07:22:07+00",13.1,15.1,,51.3,-452,-338,5,1002,50.6,0
"2018-12-03 07:27:07+00",12.2,14.2,,51.4,-410,-323,12,1001.92,50.7,0
"2018-12-03 07:32:07+00",12.1,14.1,,51.3,-404,-319,5,1001.88,50.6,0
"2018-12-03 07:37:07+00",11.6,13.6,,51.1,-367,-350,-1,1001.99,50.6,0
"2018-12-03 07:42:07+00",11.7,13.7,,51.1,-395,-307,8,1002.06,50.4,0
"2018-12-03 07:47:07+00",10.0,11.0,,50.7,-329,-277,9,1002.11,50.2,0
"2018-12-03 07:52:07+00",10.4,12.4,,50.6,-320,-321,-3,1001.98,50,0
"2018-12-03 07:57:07+00",9.8,10.8,,50.9,-322,-279,3,1002.08,49.9,0
"2018-12-03 08:02:07+00",9.7,10.7,,51,-309,-276,2,1002.07,49.8,0
"2018-12-03 08:07:07+00",9.4,10.4,,51.3,-308,-255,4,1001.93,49.9,0
"2018-12-03 08:12:07+00",9.9,10.9,,52.3,-380,-221,5,1001.94,50.1,0
"2018-12-03 08:17:07+00",8.4,9.4,,52.7,-336,-185,-5,1001.98,50.5,0
"2018-12-03 08:22:07+00",9.0,10.0,,53.2,-372,-189,6,1001.94,50.7,0
"2018-12-03 08:27:07+00",7.1,8.1,,53.1,-297,-45,-2,1001.93,50.8,0
"2018-12-03 08:32:07+00",9.7,10.7,,54.2,-419,-41,0,1001.94,51,0
"2018-12-03 08:37:07+00",9.4,11.4,,54.9,-416,-26,11,1001.87,51.9,0
"2018-12-03 08:42:07+00",10.1,12.1,,55,-438,-35,4,1001.93,52.6,0
"2018-12-03 08:47:07+00",9.3,11.3,,55.1,-407,-36,11,1001.89,52.9,0
"2018-12-03 08:52:07+00",8.8,9.8,,55,-373,-51,7,1001.92,52.7,0
"2018-12-03 08:57:07+00",9.1,11.1,,54.9,-386,-40,2,1001.86,52.4,0
"2018-12-03 09:02:07+00",9.1,10.1,,54.9,-382,-59,3,1001.91,52.4,0
"2018-12-03 09:07:07+00",8.8,9.8,,54.8,-372,-56,7,1001.9,52.1,0
"2018-12-03 09:12:07+00",7.8,9.8,,54.6,-338,-40,3,1001.84,51.7,0
"2018-12-03 09:17:07+00",7.1,8.1,,54.4,-297,-38,1,1001.98,51.3,0
"2018-12-03 09:22:07+00",5.3,5.3,,54.1,-210,-58,-3,1001.86,51.3,0
"2018-12-03 09:27:07+00",5.0,6.0,,53.7,-210,-78,-6,1001.82,51.5,0
"2018-12-03 09:32:07+00",4.7,5.7,,53.6,-193,-89,-3,1001.77,51.5,0
"2018-12-03 09:37:07+00",4.6,5.6,,53.5,-193,-86,-4,1001.74,51.6,0
"2018-12-03 09:42:07+00",4.7,4.7,,53.5,-176,-101,1,1001.82,51.5,0
"2018-12-03 09:47:07+00",5.2,6.2,,53.5,-181,-124,-2,1001.87,51.5,0
"2018-12-03 09:52:07+00",5.5,6.5,,53.3,-173,-156,-2,1001.85,51.1,0
"2018-12-03 09:57:07+00",5.7,5.7,,53.1,-168,-192,-3,1001.86,51,0
"2018-12-03 10:02:07+00",5.6,6.6,,53,-174,-179,-3,1001.89,51,0
"2018-12-03 10:07:07+00",6.9,7.9,,52.9,-243,-167,6,1001.94,50.9,0
"2018-12-03 10:12:07+00",7.3,7.3,,52.7,-273,-158,3,1002.02,50.5,0
"2018-12-03 10:17:07+00",8.0,8.0,,52.6,-302,-177,6,1002.03,50,0
"2018-12-03 10:22:07+00",7.5,7.5,,53.3,-337,-154,3,1002.14,49.7,0
"2018-12-03 10:27:07+00",7.9,8.9,,54.1,-349,-134,7,1002.08,49.3,0
"2018-12-03 10:32:07+00",6.9,6.9,,52.5,-272,-145,2,1002.23,49,0
"2018-12-03 10:37:07+00",7.8,8.8,,52.7,-314,-100,0,1002.43,48.5,0
"2018-12-03 10:42:07+00",8.2,9.2,,53.4,-362,-169,1,1002.42,48.6,0
"2018-12-03 10:47:07+00",8.8,9.8,,53.6,-369,-179,-1,1002.46,48.8,0
"2018-12-03 10:52:07+00",8.2,9.2,,53.2,-344,-172,-3,1002.46,48.9,0
"2018-12-03 10:57:07+00",7.9,8.9,,53.2,-318,-168,0,1002.48,49.1,0
"2018-12-03 11:02:07+00",7.5,7.5,,52.9,-330,-153,2,1002.6,48.9,0
"2018-12-03 11:07:07+00",9.1,10.1,,52.9,-344,-196,2,1002.61,49,0
"2018-12-03 11:12:07+00",8.3,9.3,,52.9,-344,-176,1,1002.74,49,0
"2018-12-03 11:17:07+00",7.5,8.5,,52.7,-323,-120,6,1002.86,48.8,0
"2018-12-03 11:22:07+00",7.0,7.0,,52.3,-287,-97,3,1002.99,48.6,0
"2018-12-03 11:27:07+00",6.9,7.9,,52.2,-287,-49,-2,1003.02,48.6,0
"2018-12-03 11:32:07+00",7.3,9.3,,52.2,-299,-63,-1,1003.11,48.8,0
"2018-12-03 11:37:07+00",8.0,9.0,,52.2,-344,-49,2,1003.17,49,0
"2018-12-03 11:42:07+00",8.2,9.2,,52,-354,-40,3,1003.1,49,0
"2018-12-03 11:47:07+00",7.7,8.7,,52,-329,-43,3,1003.04,49,0
"2018-12-03 11:52:07+00",8.3,9.3,,52.1,-343,-107,3,1003.1,48.9,0
"2018-12-03 11:57:07+00",7.9,8.9,,51.7,-293,-176,5,1003.14,48.6,0
"2018-12-03 12:02:07+00",9.0,10.0,,51.2,-280,-243,1,1003.19,48.1,0
"2018-12-03 12:07:07+00",10.7,10.7,,51.2,-378,-265,9,1003.29,48.2,0
"2018-12-03 12:12:07+00",10.4,11.4,,51.1,-379,-247,10,1003.23,48.4,0
"2018-12-03 12:17:07+00",11.0,12.0,,51.1,-420,-243,12,1003.37,48.7,0
"2018-12-03 12:22:07+00",9.5,10.5,,51.5,-415,-194,6,1003.34,48.9,0
"2018-12-03 12:27:07+00",9.6,10.6,,51.9,-438,-192,5,1003.29,49.1,0
"2018-12-03 12:32:07+00",9.0,9.0,,51.8,-405,-172,7,1003.35,49.4,0.1
"2018-12-03 12:37:07+00",8.5,9.5,,51.6,-378,-156,13,1003.44,49.5,0.9
"2018-12-03 12:42:07+00",7.8,8.8,,51.1,-342,-156,9,1003.52,49.5,2.1
"2018-12-03 12:47:07+00",8.2,9.2,,51.1,-358,-144,7,1003.58,49.5,4
"2018-12-03 12:52:07+00",8.4,9.4,,50.9,-353,-133,7,1003.65,49.5,6.3
"2018-12-03 12:57:07+00",11.0,13.0,,51.1,-463,-96,17,1003.74,49.5,16
"2018-12-03 13:02:07+00",11.9,14.9,,52.4,-515,-52,22,1003.84,50.5,20.4
"2018-12-03 13:07:07+00",11.8,12.8,,52.9,-489,-106,15,1003.81,51.1,24.3
"2018-12-03 13:12:07+00",10.9,11.9,,52.5,-459,-149,13,1004,51.2,30.8
"2018-12-03 13:17:07+00",9.0,12.0,,52.4,-382,-140,15,1004.03,51.3,32.1
"2018-12-03 13:22:07+00",9.6,11.6,,52.3,-400,-131,8,1004.02,51.3,45.9
"2018-12-03 13:27:07+00",10.1,12.1,,52.4,-413,-111,15,1003.97,51.5,55.9
"2018-12-03 13:32:07+00",10.9,12.9,,52.6,-457,-86,15,1004.06,51.7,78.1
"2018-12-03 13:37:07+00",11.3,13.3,,53.1,-488,-41,11,1004.02,51.9,55.8
"2018-12-03 13:42:07+00",11.9,14.9,,53.6,-524,-15,17,1004.15,52.1,65.6
"2018-12-03 13:47:07+00",12.0,13.0,,53.9,-536,1,23,1004.08,52.3,74.2
"2018-12-03 13:52:07+00",13.2,17.2,,54.1,16746,1105,137,1004.08,52.4,-0.1
"2018-12-03 13:57:07+00",11.4,13.4,,54.2,-503,1,25,1004.2,52.4,133.9
"2018-12-03 14:02:07+00",14.7,19.7,,54.4,-651,24,21,1004.26,52.2,148.9
"2018-12-03 14:07:07+00",17.0,20.0,,54.6,-760,152,34,1004.27,51.7,125.9
"2018-12-03 14:12:07+00",19.1,22.1,,54.6,-827,231,60,1004.41,50.9,157
"2018-12-03 14:17:07+00",18.8,21.8,,54.7,-818,263,70,1004.47,51,188.7
"2018-12-03 14:22:07+00",19.8,21.8,,54.8,-829,338,70,1004.44,51.4,154.6
"2018-12-03 14:27:07+00",19.6,21.6,,54.6,-823,317,60,1004.49,52,151.9
"2018-12-03 14:32:07+00",18.5,20.5,,54.6,-758,352,53,1004.5,52.6,209.3
"2018-12-03 14:37:07+00",17.6,20.6,,54.2,-695,353,53,1004.63,52.9,240.1
"2018-12-03 14:42:07+00",18.8,22.8,,54.7,-749,369,61,1004.59,53.6,253.8
"2018-12-03 14:47:07+00",19.7,21.7,,54.7,-766,431,34,1004.69,54.1,246.8
"2018-12-03 14:52:07+00",18.4,21.4,,54.6,-730,387,27,1004.79,54.2,243.7
"2018-12-03 14:57:07+00",20.6,23.6,,54.8,-815,447,41,1004.89,54.4,255.2
"2018-12-03 15:02:07+00",19.9,23.9,,54.7,-777,435,33,1004.85,54.4,279.6
"2018-12-03 15:07:07+00",23.5,26.5,,54.9,-911,549,19,1004.72,54.5,241.6
"2018-12-03 15:12:07+00",21.0,25.0,,54.8,-816,474,68,1004.71,54.5,223.3
"2018-12-03 15:17:07+00",19.6,22.6,,54.9,-775,422,71,1004.92,54.6,260.6
"2018-12-03 15:22:07+00",23.9,27.9,,55,-931,539,47,1004.84,54.7,261
"2018-12-03 15:27:07+00",21.8,25.8,,54.8,-857,490,78,1004.94,54.6,198.7
"2018-12-03 15:32:07+00",22.5,27.5,,54.4,-858,542,67,1004.94,54.1,159.1
"2018-12-03 15:37:07+00",25.7,29.7,,54.4,-962,628,67,1004.9,53.8,183
"2018-12-03 15:42:07+00",22.9,26.9,,54.1,-885,541,69,1004.94,53.7,163.4
"2018-12-03 15:47:07+00",23.9,26.9,,54.1,-906,592,66,1004.85,53.7,225
"2018-12-03 15:52:07+00",22.5,25.5,,53.9,-882,485,47,1004.98,53.6,137.7
"2018-12-03 15:57:07+00",20.2,23.2,,53.8,-840,353,37,1005.07,53.4,128.4
"2018-12-03 16:02:07+00",19.2,22.2,,53.7,-780,373,15,1005.05,53.3,182.4
"2018-12-03 16:07:07+00",17.4,20.4,,53.8,-704,340,41,1004.98,53.4,137
"2018-12-03 16:12:07+00",17.6,19.6,,53.7,-713,325,15,1004.97,53.6,179.7
"2018-12-03 16:17:07+00",17.0,20.0,,54,-716,284,50,1004.93,53.9,205.4
"2018-12-03 16:22:07+00",17.8,21.8,,54.1,-746,304,38,1004.93,54.1,169.1
"2018-12-03 16:27:07+00",16.5,23.5,,54.1,-658,320,67,1004.77,54.3,184.8
"2018-12-03 16:32:07+00",18.2,21.2,,54.5,-755,361,61,1004.71,54.5,268.8
"2018-12-03 16:37:07+00",16.7,21.7,,54.4,-672,366,72,1004.52,54.9,244.6
"2018-12-03 16:42:07+00",18.7,21.7,,54,-697,439,41,1004.32,54.7,248.7
"2018-12-03 16:47:07+00",18.2,21.2,,54.9,-710,408,26,1004.25,55.4,279.2
"2018-12-03 16:52:07+00",17.2,20.2,,54.7,-670,389,39,1004.29,55.7,275.5
"2018-12-03 16:57:07+00",24.8,28.8,,55.1,-972,557,64,1004.45,56,276.7
"2018-12-03 17:02:07+00",19.9,21.9,,54.7,-838,317,39,1004.45,55.9,273.3
"2018-12-03 17:07:07+00",19.1,23.1,,54.5,-781,353,65,1004.41,55.7,275.4
"2018-12-03 17:12:07+00",18.7,21.7,,54.4,-783,319,42,1004.4,55.6,276
"2018-12-03 17:17:07+00",18.6,22.6,,54.6,-760,374,49,1004.32,55.7,273.3
"2018-12-03 17:22:07+00",16.4,21.4,,54.9,-689,295,62,1004.4,56,265.8
"2018-12-03 17:27:07+00",18.5,21.5,,54.8,-737,375,29,1004.39,56.1,225.9
"2018-12-03 17:32:07+00",17.2,19.2,,54.9,-727,314,52,1004.35,56.2,267.3
"2018-12-03 17:37:07+00",15.7,19.7,,55.1,-623,335,88,1004.28,56.3,261.1
"2018-12-03 17:42:07+00",19.4,22.4,,55.1,-713,474,40,1004.28,56.3,258.4
"2018-12-03 17:47:07+00",21.4,23.4,,55.1,-904,331,73,1004.34,56.4,255.7
"2018-12-03 17:52:07+00",19.8,21.8,,55.3,-840,307,44,1004.47,56.4,254.3
"2018-12-03 17:57:07+00",19.5,21.5,,54.9,-772,358,28,1004.36,56.1,252.1
"2018-12-03 18:02:07+00",22.5,25.5,,55.1,-904,434,64,1004.21,56.1,249.6
"2018-12-03 18:07:07+00",21.0,25.0,,55,-848,435,41,1004.28,56.1,238.1
"2018-12-03 18:12:07+00",19.5,21.5,,55.1,-804,353,39,1004.18,56,224.4
"2018-12-03 18:17:07+00",18.4,22.4,,54.9,-740,365,63,1004.01,55.9,226.4
"2018-12-03 18:22:07+00",16.0,19.0,,55,-653,322,28,1003.98,56.1,220.1
"2018-12-03 18:27:07+00",15.6,18.6,,55.2,-604,345,50,1003.89,56.2,222.5
"2018-12-03 18:32:07+00",19.8,22.8,,55.2,-774,430,31,1003.83,56.2,202.9
"2018-12-03 18:37:07+00",20.6,23.6,,55.7,-814,444,39,1003.77,56.3,224.4
"2018-12-03 18:42:07+00",14.8,16.8,,55.3,-600,289,70,1003.84,56.4,216.9
"2018-12-03 18:47:07+00",16.8,21.8,,55.1,-663,357,40,1003.72,56.3,214.5
"2018-12-03 18:52:07+00",15.8,21.8,,55.2,-631,331,60,1003.74,56.3,211.2
"2018-12-03 18:57:07+00",19.1,21.1,,55.2,-752,410,42,1003.71,56.2,205.9
"2018-12-03 19:02:07+00",18.4,21.4,,55.2,-769,321,44,1003.78,56.2,197.4
"2018-12-03 19:07:07+00",18.4,21.4,,55.1,-738,360,27,1003.78,56.2,188
"2018-12-03 19:12:07+00",16.4,18.4,,55.2,-636,386,25,1003.81,56.3,186.9
"2018-12-03 19:17:07+00",15.7,17.7,,54.9,-594,363,39,1003.88,56.1,187.9
"2018-12-03 19:22:07+00",13.9,15.9,,54.6,-532,348,39,1003.98,55.9,172
"2018-12-03 19:27:07+00",19.9,22.9,,54.6,-751,501,48,1004.05,55.6,150.9
"2018-12-03 19:32:07+00",17.6,19.6,,54.7,-692,398,37,1004.2,55.4,155
"2018-12-03 19:37:07+00",17.0,19.0,,54.5,-656,384,32,1004.39,55.4,161.6
"2018-12-03 19:42:07+00",18.9,20.9,,54.7,-734,445,33,1004.31,55.4,121.7
"2018-12-03 19:47:07+00",16.4,18.4,,54.4,-627,388,35,1004.35,55.1,96.9
"2018-12-03 19:52:07+00",14.3,17.3,,54,-604,265,51,1004.48,54.8,107.8
"2018-12-03 19:57:07+00",15.4,17.4,,53.7,-630,291,48,1004.51,54.5,106.9
"2018-12-03 20:02:07+00",15.1,17.1,,53.8,-571,367,36,1004.59,54.4,56.5
"2018-12-03 20:07:07+00",13.4,15.4,,53.4,-541,287,36,1004.72,53.9,73.3
"2018-12-03 20:12:07+00",14.9,16.9,,53.7,-567,353,50,1004.78,54,59.6
"2018-12-03 20:17:07+00",16.8,20.8,,53.5,-623,436,70,1004.72,53.7,68.7
"2018-12-03 20:22:07+00",16.3,18.3,,53.5,-618,417,44,1004.84,53.6,38.6
"2018-12-03 20:27:07+00",15.1,18.1,,53.3,-600,290,44,1005.08,53.4,44.3
"2018-12-03 20:32:07+00",14.3,16.3,,53.1,-590,259,36,1005.09,53.2,40.9
"2018-12-03 20:37:07+00",14.6,16.6,,53,-586,280,27,1005.32,53.1,41.5
"2018-12-03 20:42:07+00",13.4,15.4,,52.8,-540,278,27,1005.51,53,14.9
"2018-12-03 20:47:07+00",15.7,17.7,,52.9,-596,377,39,1005.53,52.6,2.9
"2018-12-03 20:52:07+00",17.6,20.6,,53.1,-621,482,45,1005.55,52.4,3.5
"2018-12-03 20:57:07+00",13.6,16.6,,52.5,-532,310,32,1005.64,52.2,11.7
"2018-12-03 21:02:07+00",11.4,13.4,,52.2,-452,227,57,1005.59,51.8,0
"2018-12-03 21:07:07+00",14.5,15.5,,52.3,-554,337,26,1005.66,51.6,0
"2018-12-03 21:12:07+00",12.4,14.4,,51.7,-471,303,38,1005.66,51.2,0
"2018-12-03 21:17:07+00",13.0,15.0,,51.4,-496,301,30,1005.72,50.9,0
"2018-12-03 21:22:07+00",12.9,13.9,,51.2,-511,277,27,1005.78,50.4,0
"2018-12-03 21:27:07+00",12.1,13.1,,51.3,-461,285,24,1005.73,50.2,0
"2018-12-03 21:32:07+00",10.9,11.9,,51.2,-409,268,30,1005.75,50,0
"2018-12-03 21:37:07+00",13.2,14.2,,51.7,-499,319,31,1005.73,49.9,0
"2018-12-03 21:42:07+00",13.1,14.1,,51.5,-485,324,27,1005.83,49.8,0
"2018-12-03 21:47:07+00",11.5,13.5,,51.4,-431,295,26,1005.94,49.7,0
"2018-12-03 21:52:07+00",10.3,11.3,,51.3,-388,247,22,1006,49.5,0
"2018-12-03 21:57:07+00",9.7,10.7,,51,-353,245,21,1005.91,49.3,0
"2018-12-03 22:02:07+00",9.1,10.1,,50.7,-341,220,22,1005.87,49,0
"2018-12-03 22:07:07+00",7.7,8.7,,50.1,-306,156,19,1005.99,48.7,0
"2018-12-03 22:12:07+00",9.6,10.6,,50.2,-349,242,21,1005.94,48.3,0
"2018-12-03 22:17:07+00",8.7,9.7,,50.1,-323,213,18,1005.98,48.1,0
"2018-12-03 22:22:07+00",9.0,10.0,,50.3,-313,247,18,1005.95,48.1,0
"2018-12-03 22:27:07+00",9.2,11.2,,50.5,-300,278,25,1006.08,48,0
"2018-12-03 22:32:07+00",9.2,10.2,,50.3,-272,300,25,1006.15,48.1,0
"2018-12-03 22:37:07+00",9.8,10.8,,49.9,-311,297,22,1006.27,48.1,0
"2018-12-03 22:42:07+00",9.6,10.6,,49.6,-335,270,24,1006.4,48,0
"2018-12-03 22:47:07+00",11.0,13.0,,49.4,-372,329,26,1006.48,47.8,0
"2018-12-03 22:52:07+00",11.0,14.0,,49.6,-402,300,36,1006.52,48,0
"2018-12-03 22:57:07+00",11.6,12.6,,50,-413,329,30,1006.52,48.4,0
"2018-12-03 23:02:07+00",10.1,12.1,,50,-365,280,29,1006.6,48.6,0
"2018-12-03 23:07:07+00",10.2,11.2,,49.9,-349,294,23,1006.71,48.6,0
"2018-12-03 23:12:07+00",11.7,12.7,,49.7,-391,338,27,1006.8,48.4,0
"2018-12-03 23:17:07+00",11.7,13.7,,49.6,-408,319,27,1006.95,48.4,0
"2018-12-03 23:22:07+00",10.9,11.9,,49.5,-396,289,31,1006.97,48.2,0
"2018-12-03 23:27:07+00",10.9,11.9,,49.5,-405,273,26,1007.06,48.1,0
"2018-12-03 23:32:07+00",10.5,11.5,,49.5,-387,278,23,1007.12,47.9,0
"2018-12-03 23:37:07+00",9.7,10.7,,49.3,-363,243,30,1007.22,47.9,0
"2018-12-03 23:42:07+00",10.7,11.7,,49.2,-388,271,22,1007.27,47.8,0
"2018-12-03 23:47:07+00",9.9,10.9,,49.2,-366,254,25,1007.28,47.7,0
"2018-12-03 23:52:07+00",7.4,8.4,,48.8,-324,80,19,1007.42,47.6,0
"2018-12-03 23:57:07+00",8.8,9.8,,48.2,-361,140,22,1007.3,47.3,0
